Charlottetown, Prince Edward Island

10:15 AM AST on February 09, 2016 (GMT -0400)
Charlottetown

Weather History for CYYG - December, 2011

Change the Weather History Date:

Thursday, December 15, 2011

  Actual Average Record
Temperature  
Mean Temperature 33 °F -  
Max Temperature 41 °F 28 °F 53 °F (2008)
Min Temperature 27 °F 14 °F 0 °F (2013)
Degree Days  
Heating Degree Days 32    
Moisture  
Dew Point 26 °F    
Average Humidity 76    
Maximum Humidity 100    
Minimum Humidity 51    
Precipitation  
Precipitation 0.35 in 0.16 in - ()
Sea Level Pressure  
Sea Level Pressure 30.15 in    
Wind  
Wind Speed 11 mph ()    
Max Wind Speed 29 mph    
Max Gust Speed 33 mph    
Visibility 7.9 miles    
Events Rain , Snow    
Averages and records for this station are not official NWS values.
T = Trace of Precipitation, MM = Missing Value Source: Averaged Metar Reports

Daily Weather History Graph

Daily Weather History Graph

Search for Another Location

Airport or City:

Trip Planner

Search our weather history database for the weather conditions in past years. The results will help you decide how hot, cold, wet, or windy it might be!

Date:

Astronomy

Dec. 15, 2011 Rise Set
Actual Time 7:48 AM AST 4:26 PM AST
Civil Twilight 7:13 AM AST 5:01 PM AST
Nautical Twilight 6:35 AM AST 5:39 PM AST
Astronomical Twilight 5:58 AM AST 6:16 PM AST
Moon 10:03 PM AST (12/15) 10:49 AM AST (12/15)
Length of Visible Light 9h 47m
Length of Day
8h 38m
Waning Gibbous, 75% of the Moon is Illuminated
Dec 15
Waning Gibbous
Dec 17
Last Quarter
Dec 24
New
Jan 1
First Quarter
Jan 9
Full

Hourly Weather History & Observations

Time (AST) Temp. Windchill Dew Point Humidity Pressure Visibility Wind Dir Wind Speed Gust Speed Precip Events Conditions
12:00 AM 28.4 °F 24.6 °F 17.6 °F 64% 30.37 in 15.0 mi West 3.5 mph - N/A   Overcast
1:00 AM 28.4 °F 23.3 °F 17.6 °F 64% 30.36 in 15.0 mi West 4.6 mph - N/A   Overcast
2:00 AM 29 °F - 18 °F 51% 30.35 in 15 mi SW 2.3 mph - -   Overcast
2:00 AM 28.4 °F 23.3 °F 17.6 °F 64% 30.35 in 15.0 mi West 4.6 mph - N/A   Overcast
3:00 AM 28.4 °F - 17.6 °F 64% 30.37 in 15.0 mi Calm Calm - N/A   Overcast
4:00 AM 28.4 °F - 19.4 °F 69% 30.36 in 15.0 mi Calm Calm - N/A   Overcast
7:00 AM 30.2 °F 22.6 °F 19.4 °F 64% 30.32 in 15.0 mi SW 8.1 mph - N/A   Mostly Cloudy
8:00 AM 29 °F - 19 °F 56% 30.32 in 15 mi SSW 8.1 mph - -   Mostly Cloudy
8:00 AM 30.2 °F 22.6 °F 19.4 °F 64% 30.32 in 15.0 mi SSW 8.1 mph - N/A   Mostly Cloudy
10:00 AM 30.2 °F 19.3 °F 19.4 °F 64% 30.27 in 15.0 mi South 15.0 mph - N/A   Overcast
11:00 AM 32.0 °F 20.5 °F 21.2 °F 64% 30.25 in 15.0 mi SSW 18.4 mph - N/A   Overcast
12:00 PM 32.0 °F 20.5 °F 23.0 °F 69% 30.21 in 15.0 mi SSW 18.4 mph - N/A   Overcast
1:00 PM 33.8 °F 23.5 °F 23.0 °F 65% 30.18 in 15.0 mi South 16.1 mph - N/A   Overcast
1:08 PM 33.8 °F 24.8 °F - N/A% - 15.0 mi South 12.7 mph 18.4 mph N/A Snow Light Snow
1:25 PM 33.8 °F 23.5 °F - N/A% - 2.0 mi South 16.1 mph - N/A Snow Light Snow
1:33 PM 33.8 °F 21.9 °F - N/A% - 1.0 mi South 21.9 mph - N/A Snow Light Snow
2:00 PM 32 °F - 30 °F 88% 30.14 in 1 mi South 15.0 mph - - Snow Light Snow
2:00 PM 32.0 °F 21.6 °F 30.2 °F 93% 30.14 in 1.5 mi South 15.0 mph 20.7 mph N/A Snow Light Snow
2:06 PM 32.0 °F 20.5 °F - N/A% - 0.8 mi South 18.4 mph - N/A Snow Light Snow
2:23 PM 32.0 °F 21.6 °F - N/A% - 0.5 mi South 15.0 mph 20.7 mph N/A Snow Snow
2:41 PM 32.0 °F 20.8 °F - N/A% - 0.4 mi South 17.3 mph - N/A Snow Snow
3:00 PM 32.0 °F 20.8 °F 32.0 °F 100% 30.09 in 0.5 mi South 17.3 mph 23.0 mph N/A Snow Snow
3:51 PM 32.0 °F 20.1 °F - N/A% - 0.8 mi South 19.6 mph 25.3 mph N/A Snow Light Snow
4:00 PM 32.0 °F 19.8 °F 30.2 °F 93% 30.05 in 1.5 mi South 20.7 mph - N/A Snow Light Snow
4:40 PM 33.8 °F 22.8 °F - N/A% - 2.0 mi South 18.4 mph 27.6 mph N/A Snow Light Snow
4:49 PM 33.8 °F 22.5 °F - N/A% - 3.0 mi South 19.6 mph 27.6 mph N/A Rain , Snow Light Rain
5:00 PM 33.8 °F 22.5 °F 32.0 °F 93% 29.99 in 5.0 mi South 19.6 mph - N/A Rain , Snow Light Rain
5:40 PM 33.8 °F 22.8 °F - N/A% - 3.0 mi South 18.4 mph - N/A Rain Light Rain
6:00 PM 35.6 °F 24.5 °F 33.8 °F 93% 29.98 in 3.0 mi South 20.7 mph 29.9 mph N/A Rain Light Rain
6:52 PM 37.4 °F 25.9 °F - N/A% - 6.0 mi South 25.3 mph 31.1 mph N/A Rain Light Rain
7:00 PM 37.4 °F 26.6 °F 35.6 °F 93% 29.93 in 6.0 mi South 21.9 mph 32.2 mph N/A Rain Light Rain
8:00 PM 38 °F - 34 °F 80% 29.88 in 6 mi South 28.8 mph - - Rain Light Rain
9:00 PM 39.2 °F 28.3 °F 35.6 °F 87% 29.85 in 8.0 mi South 25.3 mph 31.1 mph N/A Rain Light Rain
10:00 PM 39.2 °F 28.5 °F 37.4 °F 93% 29.81 in 8.0 mi South 24.2 mph 32.2 mph N/A Rain Light Rain
11:00 PM 41.0 °F 30.7 °F 39.2 °F 93% 29.74 in 8.0 mi South 25.3 mph 33.4 mph N/A Rain Light Rain